EW7868 Weather Reports


Display with metric or nautical units.
time (UTC)temp
F
wind
direction
speed
MPH
gust
MPH
rain 1hr
in
rain 24hr
in
rain mn
in
humidity
%
barometer
mb
20260502222312 58 4 0.0 3.0 0.00 0.00 0.00 41 1015.2
20260502221808 56 270 0.0 2.0 0.00 0.00 0.00 44 1015.2
20260502221304 57 35 0.0 5.0 0.00 0.00 0.00 42 1015.4
20260502220801 58 192 0.0 3.0 0.00 0.00 0.00 42 1015.6
20260502220257 58 243 1.0 5.0 0.00 0.00 0.00 42 1015.6
20260502215754 59 339 3.0 6.0 0.00 0.00 0.00 40 1015.6
20260502215251 61 358 3.0 5.0 0.00 0.00 0.00 37 1015.3
20260502214748 60 189 2.0 5.0 0.00 0.00 0.00 38 1015.6
20260502214245 60 76 3.0 7.0 0.00 0.00 0.00 40 1015.6
20260502213742 60 0 6.0 6.0 0.00 0.00 0.00 38 1015.7
20260502213239 60 7 1.0 6.0 0.00 0.00 0.00 41 1015.2
20260502212738 58 102 0.0 5.0 0.00 0.00 0.00 43 1015.6
20260502212236 57 214 3.0 5.0 0.00 0.00 0.00 42 1015.6
20260502211732 57 193 5.0 6.0 0.00 0.00 0.00 42 1015.8
20260502211229 57 315 0.0 5.0 0.00 0.00 0.00 41 1015.9
20260502210726 58 310 0.0 5.0 0.00 0.00 0.00 43 1015.9
20260502210223 59 19 2.0 4.0 0.00 0.00 0.00 41 1016.0
20260502205720 58 237 6.0 6.0 0.00 0.00 0.00 41 1015.9
20260502205216 59 252 0.0 6.0 0.00 0.00 0.00 41 1015.9
20260502204714 59 233 2.0 3.0 0.00 0.00 0.00 43 1015.9
20260502204211 57 45 0.0 4.0 0.00 0.00 0.00 44 1016.0
20260502203708 57 38 2.0 3.0 0.00 0.00 0.00 42 1016.0
20260502203206 59 65 0.0 3.0 0.00 0.00 0.00 44 1016.1
20260502202700 56 200 1.0 3.0 0.00 0.00 0.00 43 1016.2
20260502202159 57 189 7.0 7.0 0.00 0.00 0.00 41 1016.2
20260502201656 59 355 2.0 5.0 0.00 0.00 0.00 42 1016.3
20260502201152 58 192 1.0 4.0 0.00 0.00 0.00 42 1016.2
20260502200648 58 315 2.0 5.0 0.00 0.00 0.00 39 1016.6
20260502200144 58 209 2.0 4.0 0.00 0.00 0.00 41 1016.5
20260502195643 58 319 2.0 8.0 0.00 0.00 0.00 42 1016.7
20260502195139 57 301 3.0 6.0 0.00 0.00 0.00 44 1016.6
20260502194636 57 90 2.0 5.0 0.00 0.00 0.00 46 1016.8
20260502194132 56 15 1.0 4.0 0.00 0.00 0.00 45 1016.9
20260502193629 55 220 0.0 6.0 0.00 0.00 0.00 45 1016.8
20260502193126 55 103 1.0 4.0 0.00 0.00 0.00 45 1016.7
20260502192621 55 97 0.0 5.0 0.00 0.00 0.00 43 1016.9
20260502192119 55 244 0.0 5.0 0.00 0.00 0.00 42 1017.1
20260502191616 56 90 0.0 3.0 0.00 0.00 0.00 43 1017.0
20260502191113 57 68 0.0 5.0 0.00 0.00 0.00 43 1017.0
20260502190611 55 225 3.0 3.0 0.00 0.00 0.00 45 1017.0
20260502190108 55 103 1.0 2.0 0.00 0.00 0.00 46 1017.0
20260502185603 55 246 0.0 6.0 0.00 0.00 0.00 42 1017.3
20260502185100 55 90 0.0 4.0 0.00 0.00 0.00 46 1017.2
20260502184556 55 23 0.0 3.0 0.00 0.00 0.00 45 1017.3
20260502184051 56 71 0.0 5.0 0.00 0.00 0.00 44 1017.3
20260502183548 57 90 2.0 4.0 0.00 0.00 0.00 45 1017.4
20260502183044 55 14 3.0 5.0 0.00 0.00 0.00 46 1017.4
20260502182539 54 97 0.0 4.0 0.00 0.00 0.00 46 1017.6
20260502182036 54 74 0.0 6.0 0.00 0.00 0.00 46 1017.4
20260502181534 55 247 3.0 5.0 0.00 0.00 0.00 45 1017.5
20260502181032 55 240 2.0 5.0 0.00 0.00 0.00 48 1017.7
20260502180529 53 23 0.0 3.0 0.00 0.00 0.00 47 1017.7
20260502170448 54 342 2.0 3.0 0.00 0.00 0.00 46 1018.3
20260502163931 54 77 1.0 4.0 0.00 0.00 0.00 47 1018.3
20260502163427 54 340 0.0 5.0 0.00 0.00 0.00 48 1018.6
20260502162925 54 15 0.0 4.0 0.00 0.00 0.00 46 1018.1
20260502162422 52 206 2.0 7.0 0.00 0.00 0.00 44 1018.3
20260502161919 52 90 0.0 3.0 0.00 0.00 0.00 48 1018.3
20260502161415 53 85 2.0 4.0 0.00 0.00 0.00 47 1018.5
20260502160913 54 90 2.0 4.0 0.00 0.00 0.00 49 1018.6
20260502160411 52 83 1.0 6.0 0.00 0.00 0.00 49 1018.8
20260502151850 51 220 3.0 4.0 0.00 0.00 0.00 45 1018.8
20260502151345 51 188 0.0 3.0 0.00 0.00 0.00 47 1018.8
20260502150843 52 90 5.0 5.0 0.00 0.00 0.00 52 1018.7
20260502150340 51 82 3.0 5.0 0.00 0.00 0.00 51 1018.7
20260502130728 50 353 0.0 2.0 0.00 0.00 0.00 63 1018.5
20260502130226 52 14 1.0 2.0 0.00 0.00 0.00 61 1018.5
20260502123711 49 180 0.0 0.0 0.00 0.00 0.00 67 1018.4
20260502123208 47 180 0.0 0.0 0.00 0.00 0.00 70 1018.4
20260502122704 44 180 0.0 2.0 0.00 0.00 0.00 71 1018.1
20260502122201 48 188 0.0 0.0 0.00 0.00 0.00 67 1018.3
20260502121659 47 74 0.0 2.0 0.00 0.00 0.00 68 1018.3
20260502121157 47 106 0.0 1.0 0.00 0.00 0.00 73 1018.1
20260502120653 45 83 1.0 2.0 0.00 0.00 0.00 75 1018.3
20260502120150 43 82 0.0 1.0 0.00 0.00 0.00 84 1018.3
20260502115648 42 94 2.0 2.0 0.00 0.00 0.00 92 1018.3
20260502115144 44 96 1.0 2.0 0.00 0.00 0.00 98 1017.9
20260502114640 40 173 0.0 0.0 0.00 0.00 0.00 98 1018.0
20260502114137 37 180 1.0 1.0 0.00 0.00 0.00 97 1018.0
20260502113635 35 74 0.0 0.0 0.00 0.00 0.00 97 1018.0
20260502113133 34 74 0.0 0.0 0.00 0.00 0.00 97 1017.8
20260502112631 33 90 0.0 0.0 0.00 0.00 0.00 96 1017.8
20260502112127 32 90 0.0 0.0 0.00 0.00 0.00 96 1017.7
20260502111625 32 97 0.0 0.0 0.00 0.00 0.00 96 1017.6
20260502111122 32 97 0.0 1.0 0.00 0.00 0.00 96 1018.0
20260502110620 32 97 0.0 0.0 0.00 0.00 0.00 96 1017.7
20260502110117 32 97 0.0 0.0 0.00 0.00 0.00 95 1018.0
20260502105615 32 97 0.0 1.0 0.00 0.00 0.00 96 1017.8
20260502105111 32 165 0.0 0.0 0.00 0.00 0.00 96 1017.7
20260502104609 33 165 0.0 0.0 0.00 0.00 0.00 96 1017.7
20260502104106 32 98 0.0 1.0 0.00 0.00 0.00 95 1017.8
20260502103604 32 157 0.0 1.0 0.00 0.00 0.00 95 1017.8
20260502103102 32 82 0.0 1.0 0.00 0.00 0.00 95 1017.8
20260502102558 32 82 0.0 1.0 0.00 0.00 0.00 95 1017.8
20260502102055 32 98 0.0 1.0 0.00 0.00 0.00 95 1017.6
20260502101553 32 105 0.0 1.0 0.00 0.00 0.00 94 1017.4
20260502101051 31 90 0.0 0.0 0.00 0.00 0.00 94 1017.6
20260502100549 32 90 0.0 0.0 0.00 0.00 0.00 94 1017.6
20260502091524 33 90 0.0 0.0 0.00 0.00 0.00 92 1017.6
20260502091021 33 173 0.0 0.0 0.00 0.00 0.00 92 1017.4
20260502090518 33 173 0.0 0.0 0.00 0.00 0.00 92 1017.5
20260502071412 38 105 0.0 0.0 0.00 0.00 0.00 82 1017.5
20260502070910 38 105 0.0 0.0 0.00 0.00 0.00 82 1017.6
20260502070408 38 105 0.0 0.0 0.00 0.00 0.00 81 1017.6
20260502065907 39 105 0.0 0.0 0.00 0.00 0.00 80 1017.8
20260502065405 39 114 0.0 1.0 0.00 0.00 0.00 80 1017.6
20260502064903 39 106 0.0 0.0 0.00 0.00 0.00 80 1017.6
20260502064400 39 71 0.0 2.0 0.00 0.00 0.00 80 1017.6
20260502063856 39 180 0.0 2.0 0.00 0.00 0.00 79 1017.6
20260502063355 39 90 0.0 0.0 0.00 0.00 0.00 79 1017.9
20260502062852 39 74 0.0 0.0 0.00 0.00 0.00 79 1018.1
20260502062349 39 74 0.0 2.0 0.00 0.00 0.00 79 1018.1
20260502061848 39 106 0.0 1.0 0.00 0.00 0.00 78 1017.9
20260502061345 39 79 0.0 2.0 0.00 0.00 0.00 78 1017.8
20260502060841 39 79 2.0 2.0 0.00 0.00 0.00 79 1017.8
20260502060336 39 77 1.0 2.0 0.00 0.00 0.00 79 1018.2
20260502055834 39 69 0.0 1.0 0.00 0.00 0.00 79 1018.0
20260502055332 39 95 2.0 2.0 0.00 0.00 0.00 78 1018.1
20260502054831 39 90 0.0 1.0 0.00 0.00 0.00 78 1018.0
20260502054328 39 90 0.0 1.0 0.00 0.00 0.00 77 1018.1
20260502053826 39 83 0.0 2.0 0.00 0.00 0.00 77 1018.3
20260502053322 39 90 0.0 1.0 0.00 0.00 0.00 76 1018.2
20260502052820 40 111 1.0 2.0 0.00 0.00 0.00 75 1018.1
20260502052318 40 83 1.0 3.0 0.00 0.00 0.00 74 1017.9
20260502051816 40 79 2.0 3.0 0.00 0.00 0.00 74 1017.8
20260502051315 40 102 1.0 3.0 0.00 0.00 0.00 73 1018.1
20260502050810 40 90 0.0 3.0 0.00 0.00 0.00 73 1018.0
20260502050307 40 103 1.0 4.0 0.00 0.00 0.00 73 1018.1
20260502045804 40 105 2.0 4.0 0.00 0.01 0.01 73 1018.0
20260502045300 40 90 3.0 6.0 0.00 0.01 0.01 73 1018.0
20260502044758 40 106 4.0 5.0 0.00 0.01 0.01 73 1018.0
20260502044254 40 86 5.0 5.0 0.00 0.01 0.01 73 1018.3
20260502043751 40 83 3.0 3.0 0.00 0.01 0.01 73 1018.1
20260502043248 40 72 3.0 6.0 0.00 0.01 0.01 73 1017.9
20260502042748 40 77 3.0 4.0 0.00 0.01 0.01 73 1017.8
20260502042245 40 83 3.0 5.0 0.00 0.01 0.01 73 1018.1
20260502041743 40 111 0.0 5.0 0.00 0.01 0.01 74 1017.7
20260502041240 40 75 3.0 6.0 0.00 0.01 0.01 74 1017.9
20260502040737 40 82 2.0 4.0 0.00 0.01 0.01 74 1018.0
20260502040234 40 81 5.0 5.0 0.00 0.01 0.01 74 1017.8
20260502035730 40 98 2.0 6.0 0.00 0.01 0.01 74 1017.9
20260502035227 40 87 3.0 6.0 0.00 0.01 0.01 74 1017.9
20260502034724 40 86 0.0 5.0 0.00 0.01 0.01 73 1017.8
20260502034222 40 93 0.0 6.0 0.00 0.01 0.01 73 1017.9
20260502033720 40 84 3.0 5.0 0.00 0.01 0.01 73 1017.7
20260502033218 40 92 6.0 7.0 0.00 0.01 0.01 73 1017.8
20260502032714 40 106 0.0 5.0 0.00 0.01 0.01 74 1017.5
20260502032210 40 103 3.0 4.0 0.00 0.01 0.01 75 1017.8
20260502031708 40 74 2.0 4.0 0.00 0.01 0.01 75 1017.5
20260502031206 40 87 3.0 6.0 0.00 0.01 0.01 74 1017.7
20260502030704 40 93 3.0 4.0 0.00 0.01 0.01 75 1017.9
20260502030202 40 105 2.0 7.0 0.00 0.01 0.01 75 1017.4
20260502025659 40 90 3.0 5.0 0.00 0.01 0.01 75 1017.5
20260502025156 40 86 3.0 5.0 0.00 0.01 0.01 75 1017.5
20260502024654 41 76 4.0 9.0 0.00 0.01 0.01 74 1017.1
20260502024153 41 90 3.0 8.0 0.00 0.01 0.01 74 1017.3
20260502023650 41 100 4.0 6.0 0.00 0.01 0.01 74 1017.2
20260502023147 41 57 6.0 14.0 0.00 0.01 0.01 74 1017.1
20260502022644 41 88 5.0 11.0 0.00 0.01 0.01 74 1016.9
20260502022141 41 103 4.0 6.0 0.00 0.01 0.01 74 1017.1
20260502021638 42 87 3.0 5.0 0.00 0.01 0.01 75 1017.0
20260502021135 42 103 3.0 9.0 0.00 0.01 0.01 75 1016.9
20260502020633 42 83 3.0 3.0 0.00 0.01 0.01 76 1016.6
20260502020129 42 94 2.0 5.0 0.00 0.01 0.01 75 1016.7
20260502015627 42 95 4.0 7.0 0.00 0.01 0.01 74 1016.5
20260502015123 43 71 2.0 9.0 0.00 0.01 0.01 74 1016.5
20260502014621 43 90 4.0 7.0 0.00 0.01 0.01 75 1016.4
20260502014118 43 100 0.0 6.0 0.00 0.01 0.01 75 1016.4
20260502013614 43 78 5.0 9.0 0.00 0.01 0.01 75 1016.2
20260502013109 44 97 0.0 5.0 0.00 0.01 0.01 75 1016.2
20260502012607 44 112 2.0 7.0 0.00 0.01 0.01 74 1016.0
20260502012105 44 90 2.0 6.0 0.00 0.01 0.01 75 1016.1
20260502011601 44 101 3.0 6.0 0.00 0.01 0.01 75 1016.1
20260502011057 44 90 1.0 6.0 0.00 0.01 0.01 75 1015.7
20260502010555 45 105 3.0 7.0 0.00 0.01 0.01 74 1015.7
20260502010051 45 100 0.0 7.0 0.00 0.01 0.01 73 1015.7
20260502005549 45 90 3.0 4.0 0.00 0.01 0.01 73 1015.4
20260502005047 46 94 0.0 6.0 0.00 0.01 0.01 72 1015.6
20260502004542 46 90 1.0 6.0 0.00 0.01 0.01 71 1015.4
20260502004039 46 90 4.0 6.0 0.00 0.01 0.01 70 1015.3
20260502003537 47 106 2.0 7.0 0.00 0.01 0.01 69 1015.3
20260502003033 48 101 3.0 5.0 0.00 0.01 0.01 67 1015.2
20260502002530 48 92 5.0 6.0 0.00 0.01 0.01 66 1015.6
20260502002027 49 81 5.0 6.0 0.00 0.01 0.01 65 1015.1
20260502001525 51 90 5.0 5.0 0.00 0.01 0.01 64 1015.0
20260502001022 51 103 2.0 4.0 0.00 0.01 0.01 63 1015.1
20260502000520 51 110 2.0 4.0 0.00 0.01 0.01 63 1015.0
20260502000017 51 102 0.0 4.0 0.00 0.01 0.01 63 1015.1
20260501235513 51 77 2.0 4.0 0.00 0.01 0.01 62 1015.0
20260501235008 52 101 0.0 6.0 0.00 0.01 0.01 61 1015.0
20260501234504 54 90 0.0 3.0 0.00 0.01 0.01 55 1014.8
20260501234003 56 190 0.0 3.0 0.00 0.01 0.01 51 1014.7
20260501233501 55 81 0.0 2.0 0.00 0.01 0.01 51 1014.9
20260501232956 55 346 2.0 3.0 0.00 0.01 0.01 52 1015.0
20260501232453 54 75 0.0 3.0 0.00 0.01 0.01 54 1015.0
20260501231950 53 0 0.0 1.0 0.00 0.01 0.01 54 1015.1
20260501231449 51 90 0.0 1.0 0.00 0.01 0.01 58 1014.9
20260501230946 52 354 1.0 3.0 0.00 0.01 0.01 56 1015.0
20260501230445 53 294 2.0 3.0 0.00 0.01 0.01 55 1015.3
20260501225943 51 221 2.0 3.0 0.00 0.01 0.01 58 1015.6
20260501225440 51 81 0.0 3.0 0.00 0.01 0.01 57 1015.4
20260501224936 51 66 0.0 3.0 0.00 0.01 0.01 57 1015.3
20260501224433 52 112 0.0 3.0 0.00 0.01 0.01 56 1015.4
20260501223930 51 81 2.0 3.0 0.00 0.01 0.01 57 1015.6
20260501223426 51 0 1.0 2.0 0.00 0.01 0.01 58 1015.4
20260501222922 50 334 1.0 3.0 0.00 0.01 0.01 58 1015.4